Date String (YYYY-MM-DD hh:mm:ss) UTC,Instrument flags,Ambient pressure (hPa),Sample flow (lpm),Bypass flow (lpm),Sample temperature (°C),Ambient temperature (°C),ASC tube jacket temperature (°C),LED temperature (°C),Box temperature (°C),Sample RH (%),Span deviation,Mass concentration (μg/m³),Mass concentration (μg/m³),Mass concentration (μg/m³)
DateTimeUTC,F1_M11,P_M11,Q1_M11,Q2_M11,T1_M11,T2_M11,T3_M11,T4_M11,T5_M11,U1_M11,ZSPAN_M11,X0_M11,X2_M11,X1_M11
2023-05-21 17:00:00,,0834.1,5.00,0.00,30.0,28.5,00.0,38.3,31.6,14.2,0003.6,0023.35,0015.59,0014.59
2023-05-21 17:01:00,,0834.0,5.00,0.00,30.0,28.5,00.0,38.3,31.6,14.1,0003.7,0022.73,0015.62,0014.60
2023-05-21 17:02:00,,0834.1,5.00,0.00,30.0,28.6,00.0,38.3,31.6,14.0,0004.0,0022.75,0015.65,0014.61
2023-05-21 17:03:00,,0834.1,5.00,0.00,30.0,28.6,00.0,38.3,31.6,14.2,0004.1,0022.71,0015.70,0014.65
2023-05-21 17:04:00,,0834.0,5.00,0.00,30.0,28.6,00.0,38.3,31.6,14.1,0004.1,0022.33,0015.71,0014.69
2023-05-21 17:05:00,,0834.0,5.01,0.00,30.0,28.6,00.0,38.3,31.7,14.2,0004.1,0022.13,0015.69,0014.71
2023-05-21 17:06:00,,0834.1,4.99,0.00,30.1,28.7,00.0,38.3,31.7,14.1,0004.2,0022.07,0015.70,0014.73
2023-05-21 17:07:00,,0834.1,4.99,0.00,30.1,28.7,00.0,38.3,31.7,14.0,0004.2,0021.63,0015.68,0014.77
2023-05-21 17:08:00,,0834.0,5.01,0.00,30.1,28.7,00.0,38.4,31.7,14.5,0004.3,0021.43,0015.72,0014.81
2023-05-21 17:09:00,,0834.1,5.01,0.00,30.1,28.7,00.0,38.4,31.7,14.1,0004.3,0021.06,0015.77,0014.87
2023-05-21 17:10:00,,0834.1,4.99,0.00,30.1,28.3,00.0,38.3,31.7,14.3,0004.2,0020.68,0015.87,0014.90
2023-05-21 17:11:00,,0834.0,5.00,0.00,30.1,26.6,00.0,38.3,31.5,15.2,0004.1,0020.56,0015.91,0014.90
2023-05-21 17:12:00,,0834.0,5.00,0.00,30.0,25.7,00.0,38.2,31.3,14.6,0004.0,0020.51,0015.90,0014.90
2023-05-21 17:13:00,,0834.0,5.01,0.00,29.9,25.8,00.0,38.1,31.2,15.2,0003.8,0020.45,0015.88,0014.92
2023-05-21 17:14:00,,0834.0,5.00,0.00,29.8,26.1,00.0,38.1,31.1,14.3,0003.8,0020.58,0015.88,0014.95
2023-05-21 17:15:00,,0834.0,5.00,0.00,29.8,26.4,00.0,38.1,31.1,14.6,0003.9,0021.05,0015.92,0014.97
2023-05-21 17:16:00,,0834.0,5.00,0.00,29.7,26.7,00.0,38.1,31.2,15.7,0003.8,0021.40,0015.99,0014.97
2023-05-21 17:17:00,,0834.0,4.99,0.00,29.7,27.0,00.0,38.1,31.2,15.3,0003.6,0021.78,0016.05,0015.01
2023-05-21 17:18:00,,0834.0,4.99,0.00,29.7,27.3,00.0,38.1,31.2,14.7,0003.6,0022.01,0016.16,0015.08
2023-05-21 17:19:00,,0834.0,5.01,0.00,29.7,27.5,00.0,38.1,31.2,14.1,0003.4,0022.14,0016.19,0015.14
2023-05-21 17:20:00,,0834.0,5.01,0.00,29.7,27.6,00.0,38.1,31.3,14.2,0003.2,0022.04,0016.18,0015.16
2023-05-21 17:21:00,,0834.0,4.99,0.00,29.7,27.8,00.0,38.1,31.3,14.4,0003.3,0022.25,0016.18,0015.20
2023-05-21 17:22:00,,0833.9,4.99,0.00,29.7,27.9,00.0,38.1,31.3,14.6,0003.2,0022.35,0016.22,0015.27
2023-05-21 17:23:00,,0833.9,5.01,0.00,29.7,28.0,00.0,38.1,31.3,15.0,0003.3,0022.50,0016.33,0015.34
2023-05-21 17:24:00,,0833.9,5.01,0.00,29.7,28.1,00.0,38.1,31.4,15.4,0003.4,0022.84,0016.43,0015.42
2023-05-21 17:25:00,,0833.9,5.00,0.00,29.8,28.2,00.0,38.1,31.4,15.1,0003.3,0023.65,0016.55,0015.52
2023-05-21 17:26:00,,0833.9,5.00,0.00,29.8,28.3,00.0,38.1,31.4,14.3,0003.2,0023.20,0016.63,0015.60
2023-05-21 17:27:00,,0834.0,5.00,0.00,29.8,28.3,00.0,38.1,31.4,14.1,0003.0,0023.36,0016.66,0015.66
2023-05-21 17:28:00,,0833.9,5.00,0.00,29.8,28.4,00.0,38.1,31.4,13.5,0003.2,0023.91,0016.77,0015.75
2023-05-21 17:29:00,,0833.9,4.99,0.00,29.8,28.4,00.0,38.1,31.5,14.1,0003.1,0023.83,0016.82,0015.82
2023-05-21 17:30:00,,0833.9,5.01,0.00,29.8,28.5,00.0,38.1,31.5,14.9,0003.0,0023.69,0016.79,0015.82
2023-05-21 17:31:00,,0833.9,5.00,0.00,29.9,28.5,00.0,38.1,31.5,14.3,0003.1,0023.65,0016.81,0015.83
2023-05-21 17:32:00,,0833.9,5.00,0.00,29.9,28.5,00.0,38.2,31.5,14.4,0003.1,0023.88,0016.84,0015.84
2023-05-21 17:33:00,,0833.9,5.00,0.00,29.9,28.6,00.0,38.2,31.6,15.3,0003.1,0024.04,0016.89,0015.88
2023-05-21 17:34:00,,0833.9,5.00,0.00,29.9,28.6,00.0,38.2,31.6,14.5,0003.2,0024.28,0016.87,0015.86
2023-05-21 17:35:00,,0833.9,5.00,0.00,30.0,28.6,00.0,38.2,31.6,14.0,0003.1,0024.16,0016.76,0015.78
2023-05-21 17:36:00,,0833.9,5.00,0.00,30.0,28.6,00.0,38.2,31.6,13.7,0003.2,0023.98,0016.69,0015.69
2023-05-21 17:37:00,,0833.8,4.99,0.00,30.0,27.6,00.0,38.2,31.5,14.0,0003.2,0024.17,0016.58,0015.60
2023-05-21 17:38:00,,0833.9,5.00,0.00,29.9,26.4,00.0,38.1,31.3,15.4,0003.5,0024.21,0016.50,0015.52
2023-05-21 17:39:00,,0833.8,5.01,0.00,29.9,26.4,00.0,38.1,31.2,14.5,0003.5,0023.38,0016.35,0015.43
2023-05-21 17:40:00,,0833.7,5.00,0.00,29.8,26.6,00.0,38.1,31.2,15.3,0003.5,0023.25,0016.24,0015.37
2023-05-21 17:41:00,,0833.8,5.00,0.00,29.8,26.9,00.0,38.1,31.2,15.6,0003.6,0023.65,0016.25,0015.33
2023-05-21 17:42:00,,0833.8,5.00,0.00,29.7,27.1,00.0,38.1,31.2,15.8,0003.6,0023.91,0016.29,0015.33
2023-05-21 17:43:00,,0833.8,5.00,0.00,29.7,27.4,00.0,38.1,31.3,15.6,0003.6,0024.58,0016.30,0015.34
2023-05-21 17:44:00,,0833.8,4.99,0.00,29.7,27.6,00.0,38.1,31.3,14.6,0003.5,0024.17,0016.24,0015.33
2023-05-21 17:45:00,,0833.8,4.99,0.00,29.7,27.7,00.0,38.1,31.3,14.7,0003.5,0023.78,0016.24,0015.34
2023-05-21 17:46:00,,0833.7,5.01,0.00,29.7,27.9,00.0,38.1,31.4,14.5,0003.5,0023.89,0016.27,0015.37
2023-05-21 17:47:00,,0833.7,5.01,0.00,29.8,28.0,00.0,38.1,31.4,15.5,0003.4,0024.16,0016.32,0015.42
2023-05-21 17:48:00,,0833.8,4.99,0.00,29.8,28.1,00.0,38.1,31.4,15.7,0003.5,0023.35,0016.31,0015.40
2023-05-21 17:49:00,,0833.8,4.99,0.00,29.8,28.2,00.0,38.1,31.4,14.4,0003.4,0023.11,0016.35,0015.41
2023-05-21 17:50:00,,0833.8,5.01,0.00,29.8,28.3,00.0,38.1,31.4,14.4,0003.3,0023.30,0016.42,0015.45
2023-05-21 17:51:00,,0833.8,5.00,0.00,29.8,28.4,00.0,38.1,31.5,16.0,0003.2,0023.96,0016.49,0015.48
2023-05-21 17:52:00,,0833.8,5.00,0.00,29.8,28.4,00.0,38.1,31.5,15.5,0003.1,0024.24,0016.48,0015.48
2023-05-21 17:53:00,,0833.8,5.00,0.00,29.9,28.5,00.0,38.1,31.5,15.7,0003.2,0024.15,0016.46,0015.51
2023-05-21 17:54:00,,0833.8,5.00,0.00,29.9,28.5,00.0,38.2,31.5,15.0,0003.1,0024.37,0016.47,0015.53
2023-05-21 17:55:00,,0833.7,5.01,0.00,29.9,28.6,00.0,38.2,31.6,15.7,0003.1,0024.04,0016.48,0015.52
2023-05-21 17:56:00,,0833.7,4.97,0.00,29.9,27.8,00.0,38.1,31.5,14.5,0003.2,0023.94,0016.43,0015.49
2023-05-21 17:57:00,,0833.7,5.00,0.00,29.9,26.4,00.0,38.0,31.3,15.2,0003.1,0023.99,0016.45,0015.49
2023-05-21 17:58:00,,0833.7,5.00,0.00,29.8,26.3,00.0,38.0,31.2,14.2,0003.2,0023.49,0016.48,0015.52
2023-05-21 17:59:00,,0833.7,5.01,0.00,29.8,26.4,00.0,38.0,31.1,14.2,0003.3,0023.62,0016.55,0015.59
